Find Himawari 4

NORAD ID: 20217 Int'l Des: 1989-070 Owner: NASDA Country: J operational
HEOCIRCULAR

当前视图

正在加载3D地球...

关于 Himawari 4

正在加载描述...

即将过境

Passes for default location (London). Set your location on the main map for personalized predictions.

高度历史

Loading altitude history...

两行轨道根数

1 20217U 89070A 26149.85574735 -.00000162 00000-0 00000+0 0 9991
2 20217 14.8036 346.9708 0044675 145.3264 34.0831 0.97412653132365
Epoch: May 29, 2026 • Age: 15 hours

当前状态

高度 36650.1 km
速度 3.04 km/s
星下点 9.80°N, 37.06°W
发射日期 Sep 5, 1989
运行时间 36.7 years
类型 weather

技术详情

分类 Payload
质量 325.00 kg
干质量 284.00 kg
总质量 725.00 kg
长度 3.40 m
直径 2.20 m
跨度 3.40 m
形状 Cyl
制造商 NEC/HSES
平台类型 HS-378
阶段状态 In Orbit
所有者/国家 NASDA/J

Most Searched